Weather History for KNFG - February, 2013

Change the Weather History Date:

Friday, February 15, 2013

  Actual Average (KOKB) Record (KOKB)
Temperature  
Mean Temperature 59 °F 54 °F  
Max Temperature 82 °F 65 °F 83 °F (2013)
Min Temperature 36 °F 43 °F 33 °F (2008)
Degree Days  
Heating Degree Days 6 11  
Month to date heating degree days 165  
Since 1 July heating degree days 1270  
Cooling Degree Days 0 0  
Month to date cooling degree days 0  
Year to date cooling degree days 0  
Growing Degree Days 9 (Base 50)    
Moisture  
Dew Point 31 °F    
Average Humidity 46    
Maximum Humidity 82    
Minimum Humidity 10    
Precipitation  
Precipitation 0.00 in 0.14 in 0.27 in (2012)
Month to date precipitation 1.38  
Year to date precipitation 4.03  
Snow  
Snow 0.00 in - - ()
Month to date snowfall  
Year to date snowfall  
Since 1 July snowfall  
Snow Depth -    
Sea Level Pressure  
Sea Level Pressure 30.14 in    
Wind  
Wind Speed 2 mph (ESE)    
Max Wind Speed 12 mph    
Max Gust Speed -    
Visibility 10 miles    
Events      
T = Trace of Precipitation, MM = Missing Value Source: NWS Daily Summary

Daily Weather History Graph

Daily Weather History Graph

Search for Another Location

Airport or City:

Trip Planner

Search our weather history database for the weather conditions in past years. The results will help you decide how hot, cold, wet, or windy it might be!

Date:

Astronomy

Feb. 15, 2013 Rise Set
Actual Time 6:32 AM PST 5:34 PM PST
Civil Twilight 6:07 AM PST 5:59 PM PST
Nautical Twilight 5:38 AM PST 6:29 PM PST
Astronomical Twilight 5:09 AM PST 6:57 PM PST
Moon 9:31 AM PST (2/15) 11:18 PM PST (2/15)
Length of Visible Light 11h 52m
Length of Day
11h 01m
Waxing Crescent, 31% of the Moon is Illuminated
Feb 15
Waxing Crescent
Feb 17
First Quarter
Feb 25
Full
Mar 4
Last Quarter
Mar 11
New

Hourly Weather History & Observations

Time (PST) Temp. Dew Point Humidity Pressure Visibility Wind Dir Wind Speed Gust Speed Precip Events Conditions
12:54 AM 42.1 °F 37.0 °F 82% 30.13 in 9.0 mi Calm Calm - N/A   Clear
1:54 AM 41.0 °F 35.1 °F 79% 30.13 in 10.0 mi Calm Calm - N/A   Clear
2:54 AM 41.0 °F 34.0 °F 76% 30.12 in 10.0 mi Calm Calm - N/A   Clear
3:54 AM 39.9 °F 33.1 °F 77% 30.12 in 10.0 mi Calm Calm - N/A   Clear
4:54 AM 39.0 °F 32.0 °F 76% 30.12 in 10.0 mi Calm Calm - N/A   Clear
5:54 AM 36.0 °F 30.0 °F 79% 30.13 in 10.0 mi Calm Calm - N/A   Partly Cloudy
6:54 AM 39.0 °F 30.9 °F 73% 30.15 in 10.0 mi Calm Calm - N/A   Partly Cloudy
7:54 AM 46.0 °F 36.0 °F 68% 30.16 in 10.0 mi Calm Calm - N/A   Scattered Clouds
8:54 AM 63.0 °F 35.1 °F 35% 30.17 in 10.0 mi Calm Calm - N/A   Scattered Clouds
9:54 AM 75.0 °F 25.0 °F 16% 30.15 in 10.0 mi East 6.9 mph - N/A   Scattered Clouds
10:54 AM 77.0 °F 23.0 °F 13% 30.15 in 10.0 mi SSE 6.9 mph - N/A   Scattered Clouds
11:54 AM 80.1 °F 18.0 °F 10% 30.12 in 10.0 mi East 5.8 mph - N/A   Scattered Clouds
12:54 PM 80.1 °F 25.0 °F 13% 30.11 in 10.0 mi South 6.9 mph - N/A   Scattered Clouds
1:54 PM 82.9 °F 19.9 °F 10% 30.10 in 10.0 mi Variable 4.6 mph - N/A   Scattered Clouds
2:54 PM 75.9 °F 37.9 °F 25% 30.11 in 10.0 mi South 9.2 mph - N/A   Mostly Cloudy
3:54 PM 75.0 °F 37.0 °F 25% 30.12 in 10.0 mi South 6.9 mph - N/A   Mostly Cloudy
4:54 PM 71.1 °F 39.9 °F 32% 30.13 in 10.0 mi SSE 4.6 mph - N/A   Clear
5:54 PM 63.0 °F 43.0 °F 48% 30.14 in 10.0 mi WNW 3.5 mph - N/A   Clear
6:54 PM 57.0 °F 39.9 °F 53% 30.16 in 10.0 mi Calm Calm - N/A   Clear
7:54 PM 53.1 °F 37.0 °F 55% 30.17 in 10.0 mi NNE 3.5 mph - N/A   Clear
8:54 PM 48.9 °F 34.0 °F 56% 30.18 in 10.0 mi ENE 3.5 mph - N/A   Clear
9:54 PM 46.0 °F 32.0 °F 58% 30.17 in 10.0 mi Calm Calm - N/A   Clear
10:54 PM 63.0 °F 21.9 °F 21% 30.16 in 10.0 mi ENE 10.4 mph - N/A   Clear
11:54 PM 64.0 °F 18.0 °F 17% 30.14 in 10.0 mi ENE 11.5 mph - N/A   Clear